Погода в Светлогорске

Россия / Челябинская область     53°08′11″N   59°09′07″E
В апреле 2022 года жителям России запретили посещать сайт meteo.paraplan.net по решению Генеральной прокуратуры. Аудитория сайта уменьшилась в 10 раз. Владельцы сайта не видят смысла в поддержке погодного сервера в таких условиях. Сайт будет закрыт в октябре.
темп.,
°C
ветер,
м/с
пор.,
м/с
влажн.,
%
обл.,
%
осадки,
мм/ч
давл.,
гПа
погр.,
м
6 октября, чт
чт623:00+8ююв2343100 0.3 103168
02:00+7ю3342100 0.0 102938
05:00+7ю3840100 0.0 1027159
08:00+8ю41237100 0.0 1026252
11:00+11ю61331100 0.0 1024484
14:00+12ююз61029100 0.0 1022663
17:00+13ююз61130100 0.0 1021708
20:00+10ююз51257100 0.1 1021534
7 октября, пт
пт723:00+10юз51259100 0.3 1020855
02:00+9ю4860100 0.0 1019306
05:00+9ююз5981100 0.0 1018506
08:00+8юз4780100 0.0 1017343
11:00+10зюз466952 0.0 1017784
14:00+11зсз455669 0.0 10161319
17:00+11зсз455992 0.0 10161021
20:00+7з367363 0.0 1017144
8 октября, сб
сб823:00+6з487862 0.0 1017237
02:00+7зюз5973100 0.1 1016464
05:00+7з61179100 0.1 1015818
08:00+8з5983100 0.0 1015485
11:00+9з7865100 0.1 10161132
14:00+9сз9136799 0.1 10161344
17:00+9сз7116945 0.1 10191081
20:00+7зсз511786 0.0 1021404
9 октября, вс
вс923:00+7зсз410745 0.0 1023457
02:00+5зсз388367 0.0 1024177
05:00+5з46755 0.0 102595
08:00+4зюз478617 0.0 1027146
11:00+10з56596 0.0 1027630
14:00+13з67395 0.0 10251165
17:00+13з58425 0.0 1025823
20:00+8з496611 0.0 1027189
10 октября, пн
пн1023:00+7юз37727 0.0 1027116
02:00+6юз467373 0.0 1027100
05:00+6юз377039 0.0 1027116
08:00+5юз366834 0.0 102798
11:00+11юз584321 0.0 1026388
14:00+16юз683152 0.0 10241123
17:00+15ююз693272 0.0 1023447
20:00+10ююз394641 0.0 1023146